Cruise_ID,Date_UTC,Time_UTC,Date_EDT,Time_EDT,Latitude,Longitude,CO2,Temp_C,Ship_Sal_PSU
12BHM03,5/8/2012,2:26 PM,5/8/2012,10:26 AM,27.61918,-82.66427,625.8,26.16,34.17
12BHM03,5/8/2012,2:26 PM,5/8/2012,10:26 AM,27.61918,-82.66427,487.2,26.03,34.17
12BHM03,5/8/2012,2:29 PM,5/8/2012,10:29 AM,27.61768,-82.67247,417.7,26.05,34.17
12BHM03,5/8/2012,2:34 PM,5/8/2012,10:34 AM,27.61513,-82.68602,397.8,26,34.17
12BHM03,5/8/2012,2:45 PM,5/8/2012,10:45 AM,27.60948,-82.71577,416.5,25.92,34.18
12BHM03,5/8/2012,3:00 PM,5/8/2012,11:00 AM,27.60738,-82.75163,418.2,25.84,34.2
12BHM03,5/8/2012,3:15 PM,5/8/2012,11:15 AM,27.61103,-82.7913,395.8,25.76,35.41
12BHM03,5/8/2012,3:30 PM,5/8/2012,11:30 AM,27.6073,-82.83165,483.4,25.63,35.6
12BHM03,5/8/2012,3:45 PM,5/8/2012,11:45 AM,27.60917,-82.87022,464.3,25.68,35.83
12BHM03,5/8/2012,4:00 PM,5/8/2012,12:00 PM,27.61655,-82.90633,455.6,25.68,35.87
12BHM03,5/8/2012,4:15 PM,5/8/2012,12:15 PM,27.62488,-82.94678,445.7,25.66,35.95
12BHM03,5/8/2012,4:30 PM,5/8/2012,12:30 PM,27.63325,-82.98722,434.1,25.71,36.08
12BHM03,5/8/2012,4:32 PM,5/8/2012,12:32 PM,27.63428,-82.99258,429.2,25.73,36.13
12BHM03,5/8/2012,4:32 PM,5/8/2012,12:32 PM,27.63428,-82.99258,428,25.71,36.13
12BHM03,5/8/2012,4:32 PM,5/8/2012,12:32 PM,27.63428,-82.99258,428.7,25.68,36.13
12BHM03,5/8/2012,4:32 PM,5/8/2012,12:32 PM,27.63428,-82.99258,428.5,25.66,36.13
12BHM03,5/8/2012,4:32 PM,5/8/2012,12:32 PM,27.63428,-82.99258,428.8,25.66,36.13
12BHM03,5/8/2012,4:32 PM,5/8/2012,12:32 PM,27.63428,-82.99258,429.1,25.71,36.13
12BHM03,5/8/2012,4:32 PM,5/8/2012,12:32 PM,27.63428,-82.99258,425.6,25.5,36.13
12BHM03,5/8/2012,4:33 PM,5/8/2012,12:33 PM,27.63482,-82.99527,425,25.55,36.11
12BHM03,5/8/2012,4:37 PM,5/8/2012,12:37 PM,27.63715,-83.00592,422.9,25.58,36.14
12BHM03,5/8/2012,4:39 PM,5/8/2012,12:39 PM,27.63817,-83.0113,421.1,25.44,36.17
12BHM03,5/8/2012,4:44 PM,5/8/2012,12:44 PM,27.64087,-83.02473,423.4,25.55,36.15
12BHM03,5/8/2012,4:55 PM,5/8/2012,12:55 PM,27.64567,-83.05455,427.5,25.76,36.14
12BHM03,5/8/2012,5:10 PM,5/8/2012,1:10 PM,27.65548,-83.09485,425.8,25.89,36.19
12BHM03,5/8/2012,5:25 PM,5/8/2012,1:25 PM,27.66382,-83.13585,415.2,25.36,36.2
12BHM03,5/8/2012,5:40 PM,5/8/2012,1:40 PM,27.6723,-83.17688,419,25.55,36.22
12BHM03,5/8/2012,5:55 PM,5/8/2012,1:55 PM,27.68095,-83.21818,432.7,26.64,36.24
12BHM03,5/8/2012,6:10 PM,5/8/2012,2:10 PM,27.68953,-83.25972,413.8,25.26,36.28
12BHM03,5/8/2012,6:25 PM,5/8/2012,2:25 PM,27.69895,-83.30092,415.2,25.52,36.3
12BHM03,5/8/2012,6:40 PM,5/8/2012,2:40 PM,27.7069,-83.34292,416,25.55,36.35
12BHM03,5/8/2012,6:55 PM,5/8/2012,2:55 PM,27.71528,-83.38512,422.8,25.92,36.38
12BHM03,5/8/2012,7:10 PM,5/8/2012,3:10 PM,27.72407,-83.4273,430.1,26.4,36.39
12BHM03,5/8/2012,7:25 PM,5/8/2012,3:25 PM,27.73152,-83.46982,440.4,27.05,36.42
12BHM03,5/8/2012,7:40 PM,5/8/2012,3:40 PM,27.73962,-83.51213,444,26.99,36.44
12BHM03,5/8/2012,7:55 PM,5/8/2012,3:55 PM,27.75022,-83.55462,422.8,25.63,36.42
12BHM03,5/8/2012,8:10 PM,5/8/2012,4:10 PM,27.7591,-83.59767,435.7,26.99,36.39
12BHM03,5/8/2012,8:25 PM,5/8/2012,4:25 PM,27.76807,-83.6408,426.9,26.56,36.39
12BHM03,5/8/2012,8:40 PM,5/8/2012,4:40 PM,27.77685,-83.68385,423,26.48,36.4
12BHM03,5/8/2012,8:55 PM,5/8/2012,4:55 PM,27.78577,-83.72687,414,25.84,36.36
12BHM03,5/8/2012,9:10 PM,5/8/2012,5:10 PM,27.79462,-83.76977,421.8,26.13,36.4
12BHM03,5/8/2012,9:25 PM,5/8/2012,5:25 PM,27.80345,-83.81303,425,26.51,36.41
12BHM03,5/8/2012,9:40 PM,5/8/2012,5:40 PM,27.81235,-83.85622,394.4,26.08,36.44
12BHM03,5/8/2012,9:55 PM,5/8/2012,5:55 PM,27.82122,-83.89928,418.9,26.86,36.27
12BHM03,5/8/2012,10:10 PM,5/8/2012,6:10 PM,27.83007,-83.94212,412.4,26.35,36.17
12BHM03,5/8/2012,10:25 PM,5/8/2012,6:25 PM,27.83887,-83.9847,416.1,26.67,36.15
12BHM03,5/8/2012,10:40 PM,5/8/2012,6:40 PM,27.84628,-84.02023,409.3,25.97,36.2
12BHM03,5/8/2012,10:55 PM,5/8/2012,6:55 PM,27.85502,-84.06257,409.1,25.92,36.16
12BHM03,5/8/2012,11:10 PM,5/8/2012,7:10 PM,27.86262,-84.09953,412.4,26.32,36.1
12BHM03,5/8/2012,11:25 PM,5/8/2012,7:25 PM,27.87178,-84.14398,408.9,26.16,36.14
12BHM03,5/8/2012,11:40 PM,5/8/2012,7:40 PM,27.88092,-84.18862,409.1,26.21,36.08
12BHM03,5/8/2012,11:55 PM,5/8/2012,7:55 PM,27.89022,-84.23358,405.8,26.13,36.08
12BHM03,5/9/2012,12:10 AM,5/8/2012,8:10 PM,27.89948,-84.27862,411.3,26.35,36.11
12BHM03,5/9/2012,12:25 AM,5/8/2012,8:25 PM,27.90867,-84.3234,410.7,26.21,36.16
12BHM03,5/9/2012,12:40 AM,5/8/2012,8:40 PM,27.9175,-84.3666,408.5,26.16,36.13
12BHM03,5/9/2012,12:55 AM,5/8/2012,8:55 PM,27.92613,-84.40855,410.7,26.37,36.11
12BHM03,5/9/2012,1:10 AM,5/8/2012,9:10 PM,27.93487,-84.45065,403.4,25.95,36.11
12BHM03,5/9/2012,1:25 AM,5/8/2012,9:25 PM,27.94347,-84.49228,403.1,25.97,36.12
12BHM03,5/9/2012,1:40 AM,5/8/2012,9:40 PM,27.95193,-84.53352,406,26.16,36.27
12BHM03,5/9/2012,1:55 AM,5/8/2012,9:55 PM,27.9606,-84.57552,407.4,26.29,36.26
12BHM03,5/9/2012,2:10 AM,5/8/2012,10:10 PM,27.96913,-84.61745,408.3,26.56,36.28
12BHM03,5/9/2012,2:25 AM,5/8/2012,10:25 PM,27.97775,-84.65895,403.8,26.32,36.26
12BHM03,5/9/2012,2:40 AM,5/8/2012,10:40 PM,27.98613,-84.69992,404.3,26.53,36.23
12BHM03,5/9/2012,2:55 AM,5/8/2012,10:55 PM,27.99478,-84.7416,407.1,26.56,36.22
12BHM03,5/9/2012,3:10 AM,5/8/2012,11:10 PM,28.00282,-84.7814,403.4,26.32,36.19
12BHM03,5/9/2012,3:25 AM,5/8/2012,11:25 PM,28.011,-84.8206,402.5,26.24,36.19
12BHM03,5/9/2012,3:40 AM,5/8/2012,11:40 PM,28.01897,-84.85983,403.4,26.45,36.21
12BHM03,5/9/2012,3:55 AM,5/8/2012,11:55 PM,28.02693,-84.89868,403.7,26.43,36.2
12BHM03,5/9/2012,4:10 AM,5/9/2012,12:10 AM,28.03488,-84.937,403.5,26.37,36.15
12BHM03,5/9/2012,4:25 AM,5/9/2012,12:25 AM,28.04253,-84.97502,403,26.32,36.17
12BHM03,5/9/2012,4:40 AM,5/9/2012,12:40 AM,28.04958,-85.01295,401.5,26.24,36.17
12BHM03,5/9/2012,4:55 AM,5/9/2012,12:55 AM,28.05653,-85.05185,401.5,26.35,36.2
12BHM03,5/9/2012,5:10 AM,5/9/2012,1:10 AM,28.06392,-85.09072,399.7,26.27,36.26
12BHM03,5/9/2012,5:25 AM,5/9/2012,1:25 AM,28.072,-85.12967,398.4,26.11,36.32
12BHM03,5/9/2012,5:40 AM,5/9/2012,1:40 AM,28.08042,-85.16915,397,26.03,36.28
12BHM03,5/9/2012,5:55 AM,5/9/2012,1:55 AM,28.08867,-85.20888,398.9,26.11,36.24
12BHM03,5/9/2012,6:10 AM,5/9/2012,2:10 AM,28.09773,-85.24822,398,25.95,36.26
12BHM03,5/9/2012,6:25 AM,5/9/2012,2:25 AM,28.10715,-85.28817,398.3,25.95,36.27
12BHM03,5/9/2012,6:40 AM,5/9/2012,2:40 AM,28.11545,-85.32833,398.4,25.97,36.29
12BHM03,5/9/2012,6:55 AM,5/9/2012,2:55 AM,28.12342,-85.36815,401.4,25.47,36.31
12BHM03,5/9/2012,7:10 AM,5/9/2012,3:10 AM,28.13167,-85.40775,402.5,25.55,36.3
12BHM03,5/9/2012,7:25 AM,5/9/2012,3:25 AM,28.1398,-85.44782,400.8,25.29,36.26
12BHM03,5/9/2012,7:40 AM,5/9/2012,3:40 AM,28.14798,-85.48753,400.5,25.26,36.2
12BHM03,5/9/2012,7:55 AM,5/9/2012,3:55 AM,28.1562,-85.52717,400.4,25.31,36.26
12BHM03,5/9/2012,8:10 AM,5/9/2012,4:10 AM,28.1646,-85.56813,405.9,25.68,36.25
12BHM03,5/9/2012,8:25 AM,5/9/2012,4:25 AM,28.17308,-85.60933,405.9,25.68,36.23
12BHM03,5/9/2012,8:40 AM,5/9/2012,4:40 AM,28.18152,-85.65045,408.8,25.92,36.25
12BHM03,5/9/2012,8:55 AM,5/9/2012,4:55 AM,28.18983,-85.69142,410.9,26.08,36.23
12BHM03,5/9/2012,9:10 AM,5/9/2012,5:10 AM,28.19835,-85.73295,406.7,25.76,36.22
12BHM03,5/9/2012,9:25 AM,5/9/2012,5:25 AM,28.20695,-85.77457,408.1,25.81,36.22
12BHM03,5/9/2012,9:40 AM,5/9/2012,5:40 AM,28.21562,-85.81655,409.8,25.89,36.22
12BHM03,5/9/2012,9:55 AM,5/9/2012,5:55 AM,28.22443,-85.85913,409.3,25.92,36.19
12BHM03,5/9/2012,10:10 AM,5/9/2012,6:10 AM,28.23307,-85.90192,403,25.52,36.12
12BHM03,5/9/2012,10:25 AM,5/9/2012,6:25 AM,28.2418,-85.94457,410.7,25.95,36.09
12BHM03,5/9/2012,10:40 AM,5/9/2012,6:40 AM,28.25063,-85.98707,407.7,25.71,36.1
12BHM03,5/9/2012,10:55 AM,5/9/2012,6:55 AM,28.25935,-86.03008,405.9,25.58,36.12
12BHM03,5/9/2012,11:10 AM,5/9/2012,7:10 AM,28.26823,-86.0732,408.6,25.84,36.14
12BHM03,5/9/2012,11:25 AM,5/9/2012,7:25 AM,28.27713,-86.11643,411.6,26.05,36.16
12BHM03,5/9/2012,11:40 AM,5/9/2012,7:40 AM,28.28607,-86.1599,411.5,26.05,36.2
12BHM03,5/9/2012,11:55 AM,5/9/2012,7:55 AM,28.29493,-86.20335,411.9,26.11,36
12BHM03,5/9/2012,12:10 PM,5/9/2012,8:10 AM,28.30373,-86.24592,412.6,25.68,35.81
12BHM03,5/9/2012,12:25 PM,5/9/2012,8:25 AM,28.3126,-86.28923,402.9,25.79,35.73
12BHM03,5/9/2012,12:40 PM,5/9/2012,8:40 AM,28.3212,-86.3315,403,25.76,35.73
12BHM03,5/9/2012,12:55 PM,5/9/2012,8:55 AM,28.32993,-86.3735,402,25.79,35.76
12BHM03,5/9/2012,1:10 PM,5/9/2012,9:10 AM,28.3384,-86.41483,401.2,25.71,35.77
12BHM03,5/9/2012,1:25 PM,5/9/2012,9:25 AM,28.3467,-86.45577,406.2,25.97,35.73
12BHM03,5/9/2012,1:40 PM,5/9/2012,9:40 AM,28.35513,-86.49642,410.6,26.21,35.71
12BHM03,5/9/2012,1:55 PM,5/9/2012,9:55 AM,28.36347,-86.53763,409.8,26.32,35.82
12BHM03,5/9/2012,2:10 PM,5/9/2012,10:10 AM,28.37198,-86.57925,403.5,25.84,35.98
12BHM03,5/9/2012,2:25 PM,5/9/2012,10:25 AM,28.38045,-86.62015,399.4,26.08,35.83
12BHM03,5/9/2012,2:40 PM,5/9/2012,10:40 AM,28.38885,-86.66103,401.1,26.13,35.89
12BHM03,5/9/2012,2:55 PM,5/9/2012,10:55 AM,28.3973,-86.70253,399.5,26.13,35.8
12BHM03,5/9/2012,3:10 PM,5/9/2012,11:10 AM,28.40582,-86.74405,400.7,26.11,35.59
12BHM03,5/9/2012,3:25 PM,5/9/2012,11:25 AM,28.41845,-86.78308,401.3,26.08,35.64
12BHM03,5/9/2012,3:40 PM,5/9/2012,11:40 AM,28.43092,-86.82265,400.8,26.05,35.74
12BHM03,5/9/2012,3:55 PM,5/9/2012,11:55 AM,28.43918,-86.8654,402.5,26.08,35.67
12BHM03,5/9/2012,4:19 PM,5/9/2012,12:19 PM,28.45352,-86.93425,450.5,26.32,35.55
12BHM03,5/9/2012,4:19 PM,5/9/2012,12:19 PM,28.45352,-86.93425,435.8,26.35,35.55
12BHM03,5/9/2012,4:34 PM,5/9/2012,12:34 PM,28.46278,-86.97747,434.2,26.32,35.64
12BHM03,5/9/2012,4:34 PM,5/9/2012,12:34 PM,28.46278,-86.97747,432.2,26.29,35.64
12BHM03,5/9/2012,4:49 PM,5/9/2012,12:49 PM,28.47183,-87.02058,423.5,26.21,35.65
12BHM03,5/9/2012,5:04 PM,5/9/2012,1:04 PM,28.47843,-87.06495,419.1,26.27,35.59
12BHM03,5/9/2012,5:19 PM,5/9/2012,1:19 PM,28.48557,-87.10973,416.1,26.05,35.55
12BHM03,5/9/2012,5:34 PM,5/9/2012,1:34 PM,28.49217,-87.15338,415.1,26,35.68
12BHM03,5/9/2012,5:49 PM,5/9/2012,1:49 PM,28.49693,-87.19663,415.8,26.03,35.69
12BHM03,5/9/2012,6:04 PM,5/9/2012,2:04 PM,28.50335,-87.23788,415.6,26.11,35.74
12BHM03,5/9/2012,6:19 PM,5/9/2012,2:19 PM,28.51295,-87.27778,417,26.24,35.78
12BHM03,5/9/2012,6:34 PM,5/9/2012,2:34 PM,28.52227,-87.3171,418.1,26.35,35.61
12BHM03,5/9/2012,6:49 PM,5/9/2012,2:49 PM,28.5313,-87.35705,419,26.67,35.73
12BHM03,5/9/2012,7:04 PM,5/9/2012,3:04 PM,28.53968,-87.39763,431,26.64,35.9
12BHM03,5/9/2012,7:19 PM,5/9/2012,3:19 PM,28.54792,-87.43833,412,26.59,35.96
12BHM03,5/9/2012,7:34 PM,5/9/2012,3:34 PM,28.55628,-87.4786,411.1,26.67,36.23
12BHM03,5/9/2012,7:49 PM,5/9/2012,3:49 PM,28.56427,-87.51822,413.2,26.53,36.29
12BHM03,5/9/2012,8:04 PM,5/9/2012,4:04 PM,28.56853,-87.55315,409.4,26.21,36.2
12BHM03,5/9/2012,8:10 PM,5/9/2012,4:10 PM,28.5649,-87.55468,408.6,26.21,36.18
12BHM03,5/9/2012,8:10 PM,5/9/2012,4:10 PM,28.5649,-87.55468,408.9,26.16,36.18
12BHM03,5/9/2012,8:10 PM,5/9/2012,4:10 PM,28.5649,-87.55468,409.2,26.16,36.18
12BHM03,5/9/2012,8:10 PM,5/9/2012,4:10 PM,28.5649,-87.55468,410.6,26.13,36.18
12BHM03,5/9/2012,8:10 PM,5/9/2012,4:10 PM,28.5649,-87.55468,411.9,26.11,36.18
12BHM03,5/9/2012,8:10 PM,5/9/2012,4:10 PM,28.5649,-87.55468,412.6,26.08,36.18
12BHM03,5/9/2012,8:10 PM,5/9/2012,4:10 PM,28.5649,-87.55468,412.4,26.13,36.18
12BHM03,5/9/2012,8:10 PM,5/9/2012,4:10 PM,28.5649,-87.55468,413.6,26.13,36.18
12BHM03,5/9/2012,8:12 PM,5/9/2012,4:12 PM,28.56352,-87.55587,415.4,26.11,36.16
12BHM03,5/9/2012,8:19 PM,5/9/2012,4:19 PM,28.55865,-87.56042,413.6,26.16,36.13
12BHM03,5/9/2012,8:24 PM,5/9/2012,4:24 PM,28.5555,-87.56387,413.3,26.03,36.07
12BHM03,5/9/2012,8:35 PM,5/9/2012,4:35 PM,28.54958,-87.57165,412.7,25.97,36.03
12BHM03,5/9/2012,8:50 PM,5/9/2012,4:50 PM,28.54465,-87.58355,411.8,25.97,35.96
12BHM03,5/9/2012,9:05 PM,5/9/2012,5:05 PM,28.54183,-87.59608,412,26,35.97
12BHM03,5/9/2012,9:20 PM,5/9/2012,5:20 PM,28.53952,-87.609,411.1,25.97,35.99
12BHM03,5/9/2012,9:35 PM,5/9/2012,5:35 PM,28.53702,-87.62115,413,25.97,35.98
12BHM03,5/9/2012,9:50 PM,5/9/2012,5:50 PM,28.5336,-87.63238,410.6,25.95,36.09
12BHM03,5/9/2012,10:05 PM,5/9/2012,6:05 PM,28.53037,-87.64455,410.2,25.92,36.16
12BHM03,5/9/2012,10:20 PM,5/9/2012,6:20 PM,28.52615,-87.65943,409,25.89,36.2
12BHM03,5/9/2012,10:35 PM,5/9/2012,6:35 PM,28.52267,-87.6742,409,25.89,36.24
12BHM03,5/9/2012,10:50 PM,5/9/2012,6:50 PM,28.52167,-87.6882,409.3,25.92,36.27
12BHM03,5/9/2012,11:05 PM,5/9/2012,7:05 PM,28.52328,-87.70242,407.3,25.95,36.24
12BHM03,5/9/2012,11:20 PM,5/9/2012,7:20 PM,28.52493,-87.71668,410.3,26.16,36.16
12BHM03,5/9/2012,11:35 PM,5/9/2012,7:35 PM,28.52663,-87.72958,410.4,26.27,36.09
12BHM03,5/9/2012,11:39 PM,5/9/2012,7:39 PM,28.52703,-87.73267,406.9,26.27,36.08
12BHM03,5/9/2012,11:40 PM,5/9/2012,7:40 PM,28.52698,-87.73348,403.5,26.19,36.07
12BHM03,5/9/2012,11:40 PM,5/9/2012,7:40 PM,28.52698,-87.73348,401.8,26.21,36.07
12BHM03,5/10/2012,12:00 AM,5/9/2012,8:00 PM,28.52897,-87.74925,400.5,26.16,35.94
12BHM03,5/10/2012,12:04 AM,5/9/2012,8:04 PM,28.52935,-87.75255,401.6,26.19,35.94
12BHM03,5/10/2012,12:09 AM,5/9/2012,8:09 PM,28.52988,-87.75648,403.3,26.13,35.9
12BHM03,5/10/2012,12:20 AM,5/9/2012,8:20 PM,28.53103,-87.7653,402.7,26.03,35.91
12BHM03,5/10/2012,12:35 AM,5/9/2012,8:35 PM,28.53218,-87.7766,402.6,26.03,35.5
12BHM03,5/10/2012,12:50 AM,5/9/2012,8:50 PM,28.53375,-87.7876,404.9,26.03,34.95
12BHM03,5/10/2012,1:05 AM,5/9/2012,9:05 PM,28.53515,-87.79933,403.4,26.08,34.47
12BHM03,5/10/2012,1:20 AM,5/9/2012,9:20 PM,28.53775,-87.7998,385.3,24.95,34.55
12BHM03,5/10/2012,1:35 AM,5/9/2012,9:35 PM,28.54248,-87.80402,379.8,25.13,34.63
12BHM03,5/10/2012,1:50 AM,5/9/2012,9:50 PM,28.57,-87.82323,374.1,25.58,34.68
12BHM03,5/10/2012,2:05 AM,5/9/2012,10:05 PM,28.59762,-87.84277,379.7,25.79,35.15
12BHM03,5/10/2012,2:20 AM,5/9/2012,10:20 PM,28.62662,-87.86312,392.8,25.79,35.96
12BHM03,5/10/2012,2:35 AM,5/9/2012,10:35 PM,28.63368,-87.87072,395.4,25.79,35.96
12BHM03,5/10/2012,2:50 AM,5/9/2012,10:50 PM,28.63052,-87.86942,396,25.76,36
12BHM03,5/10/2012,3:05 AM,5/9/2012,11:05 PM,28.6284,-87.86793,399.5,25.87,36.03
12BHM03,5/10/2012,3:20 AM,5/9/2012,11:20 PM,28.62668,-87.86678,398.2,25.79,36.06
12BHM03,5/10/2012,3:35 AM,5/9/2012,11:35 PM,28.62488,-87.8655,385.9,24.81,36.08
12BHM03,5/10/2012,3:50 AM,5/9/2012,11:50 PM,28.62218,-87.86453,444.5,25.26,36.09
12BHM03,5/10/2012,4:05 AM,5/10/2012,12:05 AM,28.6088,-87.86513,433.4,25.23,36.08
12BHM03,5/10/2012,4:20 AM,5/10/2012,12:20 AM,28.59702,-87.86647,429.1,25.18,36.04
12BHM03,5/10/2012,4:35 AM,5/10/2012,12:35 AM,28.59863,-87.8693,426.2,25.18,36.01
12BHM03,5/10/2012,4:50 AM,5/10/2012,12:50 AM,28.60277,-87.87783,416.9,25.18,35.99
12BHM03,5/10/2012,5:05 AM,5/10/2012,1:05 AM,28.61908,-87.87608,412.5,25.18,36.13
12BHM03,5/10/2012,5:20 AM,5/10/2012,1:20 AM,28.63192,-87.86977,411.4,25.21,36.25
12BHM03,5/10/2012,5:35 AM,5/10/2012,1:35 AM,28.63078,-87.86845,409.2,25.21,36.24
12BHM03,5/10/2012,5:50 AM,5/10/2012,1:50 AM,28.62712,-87.86863,409.6,25.31,36.24
12BHM03,5/10/2012,6:05 AM,5/10/2012,2:05 AM,28.62685,-87.86842,405.9,25.42,36.25
12BHM03,5/10/2012,6:20 AM,5/10/2012,2:20 AM,28.62702,-87.86877,407.7,25.26,36.24
12BHM03,5/10/2012,6:35 AM,5/10/2012,2:35 AM,28.62737,-87.86878,409,25.15,36.29
12BHM03,5/10/2012,6:50 AM,5/10/2012,2:50 AM,28.62747,-87.86773,414.9,25.1,36.26
12BHM03,5/10/2012,7:05 AM,5/10/2012,3:05 AM,28.62517,-87.8674,416.9,25.08,36.29
12BHM03,5/10/2012,7:20 AM,5/10/2012,3:20 AM,28.62143,-87.86937,419.7,25.23,36.28
12BHM03,5/10/2012,7:35 AM,5/10/2012,3:35 AM,28.6279,-87.89782,418.1,25.15,36.25
12BHM03,5/10/2012,7:50 AM,5/10/2012,3:50 AM,28.63453,-87.92675,417.6,25.34,36.16
12BHM03,5/10/2012,8:05 AM,5/10/2012,4:05 AM,28.641,-87.9552,415.7,25.44,36.01
12BHM03,5/10/2012,8:20 AM,5/10/2012,4:20 AM,28.64743,-87.9837,414.6,25.52,35.88
12BHM03,5/10/2012,8:35 AM,5/10/2012,4:35 AM,28.65367,-88.0114,415.7,25.52,35.65
12BHM03,5/10/2012,8:50 AM,5/10/2012,4:50 AM,28.6623,-88.0376,414,25.55,35.47
12BHM03,5/10/2012,9:05 AM,5/10/2012,5:05 AM,28.67952,-88.0618,412,25.52,35.36
12BHM03,5/10/2012,9:20 AM,5/10/2012,5:20 AM,28.69478,-88.08327,410.8,25.55,35.34
12BHM03,5/10/2012,9:35 AM,5/10/2012,5:35 AM,28.71357,-88.1044,410.2,25.63,35.25
12BHM03,5/10/2012,9:50 AM,5/10/2012,5:50 AM,28.73583,-88.12753,408.6,25.55,35.56
12BHM03,5/10/2012,10:05 AM,5/10/2012,6:05 AM,28.759,-88.1504,410.1,25.55,35.73
12BHM03,5/10/2012,10:20 AM,5/10/2012,6:20 AM,28.78187,-88.17292,410.4,25.5,35.71
12BHM03,5/10/2012,10:35 AM,5/10/2012,6:35 AM,28.8021,-88.19738,409.8,25.42,35.68
12BHM03,5/10/2012,10:50 AM,5/10/2012,6:50 AM,28.81793,-88.2234,409.6,25.34,35.61
12BHM03,5/10/2012,11:05 AM,5/10/2012,7:05 AM,28.80315,-88.25852,410.1,25.34,34.25
12BHM03,5/10/2012,11:20 AM,5/10/2012,7:20 AM,28.78737,-88.29237,412.3,25.34,33.23
12BHM03,5/10/2012,11:35 AM,5/10/2012,7:35 AM,28.77142,-88.32683,413.1,25.34,32.4
12BHM03,5/10/2012,11:50 AM,5/10/2012,7:50 AM,28.75427,-88.36057,412.2,25.34,32.64
12BHM03,5/10/2012,12:05 PM,5/10/2012,8:05 AM,28.74002,-88.38895,411.8,25.34,33.94
12BHM03,5/10/2012,12:20 PM,5/10/2012,8:20 AM,28.73823,-88.39355,411.7,25.44,34.07
12BHM03,5/10/2012,12:24 PM,5/10/2012,8:24 AM,28.73873,-88.39473,409.8,25.5,16.91
12BHM03,5/10/2012,12:24 PM,5/10/2012,8:24 AM,28.73873,-88.39473,410.3,25.5,16.91
12BHM03,5/10/2012,12:24 PM,5/10/2012,8:24 AM,28.73873,-88.39473,409.8,25.5,16.91
12BHM03,5/10/2012,12:24 PM,5/10/2012,8:24 AM,28.73873,-88.39473,409.2,25.5,16.91
12BHM03,5/10/2012,12:24 PM,5/10/2012,8:24 AM,28.73873,-88.39473,407.9,25.47,16.91
12BHM03,5/10/2012,12:24 PM,5/10/2012,8:24 AM,28.73873,-88.39473,407.1,25.44,16.91
12BHM03,5/10/2012,12:24 PM,5/10/2012,8:24 AM,28.73873,-88.39473,1.$,25.26,16.91
12BHM03,5/10/2012,12:24 PM,5/10/2012,8:24 AM,28.73873,-88.39473,442.1,24.3,16.91
12BHM03,5/11/2012,12:11 AM,5/10/2012,8:11 PM,28.97742,-87.87017,426.6,24.19,34.33
12BHM03,5/11/2012,12:19 AM,5/10/2012,8:19 PM,28.9787,-87.8691,422.3,24.22,34.31
12BHM03,5/11/2012,12:24 AM,5/10/2012,8:24 PM,28.97877,-87.86858,418.8,24.19,34.3
12BHM03,5/11/2012,12:35 AM,5/10/2012,8:35 PM,28.97835,-87.86735,420.4,24.42,34.31
12BHM03,5/11/2012,12:50 AM,5/10/2012,8:50 PM,28.9784,-87.86595,416.6,24.53,34.32
12BHM03,5/11/2012,1:05 AM,5/10/2012,9:05 PM,28.97823,-87.86447,415.5,24.55,34.31
12BHM03,5/11/2012,1:20 AM,5/10/2012,9:20 PM,28.97608,-87.86168,415,24.58,34.36
12BHM03,5/11/2012,1:35 AM,5/10/2012,9:35 PM,28.96532,-87.85408,414,24.63,34.49
12BHM03,5/11/2012,1:50 AM,5/10/2012,9:50 PM,28.95868,-87.84798,408.3,24.68,34.55
12BHM03,5/11/2012,2:05 AM,5/10/2012,10:05 PM,28.96728,-87.85353,409.1,24.68,34.46
12BHM03,5/11/2012,2:20 AM,5/10/2012,10:20 PM,28.97508,-87.86337,409.5,24.71,34.37
12BHM03,5/11/2012,2:35 AM,5/10/2012,10:35 PM,28.97458,-87.86675,410.2,24.66,34.43
12BHM03,5/11/2012,2:50 AM,5/10/2012,10:50 PM,28.97328,-87.86485,406.1,24.55,34.45
12BHM03,5/11/2012,3:05 AM,5/10/2012,11:05 PM,28.97303,-87.86355,403.3,24.58,34.48
12BHM03,5/11/2012,3:20 AM,5/10/2012,11:20 PM,28.9724,-87.86223,402,24.55,34.48
12BHM03,5/11/2012,3:35 AM,5/10/2012,11:35 PM,28.97188,-87.86047,401.3,24.5,34.49
12BHM03,5/11/2012,3:50 AM,5/10/2012,11:50 PM,28.98423,-87.86007,404.4,24.5,34.71
12BHM03,5/11/2012,4:05 AM,5/11/2012,12:05 AM,28.99363,-87.85695,406.4,24.5,34.34
12BHM03,5/11/2012,4:20 AM,5/11/2012,12:20 AM,29.0025,-87.85348,401.9,24.4,34.04
12BHM03,5/11/2012,4:35 AM,5/11/2012,12:35 AM,29.0108,-87.84858,398.3,24.27,33.64
12BHM03,5/11/2012,4:50 AM,5/11/2012,12:50 AM,29.01835,-87.84283,392.8,24.04,33.25
12BHM03,5/11/2012,5:05 AM,5/11/2012,1:05 AM,29.02352,-87.83288,397.3,24.11,33.1
12BHM03,5/11/2012,5:20 AM,5/11/2012,1:20 AM,29.01375,-87.83197,394.1,24.19,33.14
12BHM03,5/11/2012,5:35 AM,5/11/2012,1:35 AM,29.01933,-87.83867,390.3,24.22,33.11
12BHM03,5/11/2012,5:50 AM,5/11/2012,1:50 AM,29.02847,-87.84538,385.5,24.3,32.99
12BHM03,5/11/2012,6:05 AM,5/11/2012,2:05 AM,29.0377,-87.85278,382.8,24.32,33.06
12BHM03,5/11/2012,6:20 AM,5/11/2012,2:20 AM,29.04713,-87.86117,379.9,24.3,33.19
12BHM03,5/11/2012,6:35 AM,5/11/2012,2:35 AM,29.05647,-87.87048,456.7,25.02,33.16
12BHM03,5/11/2012,6:50 AM,5/11/2012,2:50 AM,29.06585,-87.8798,442.7,25,33.15
12BHM03,5/11/2012,7:05 AM,5/11/2012,3:05 AM,29.07583,-87.88877,444.6,25.05,33.12
12BHM03,5/11/2012,7:20 AM,5/11/2012,3:20 AM,29.08618,-87.89737,435,25.31,33.06
12BHM03,5/11/2012,7:35 AM,5/11/2012,3:35 AM,29.096,-87.90572,428.3,25.76,32.95
12BHM03,5/11/2012,7:50 AM,5/11/2012,3:50 AM,29.10577,-87.91453,425.3,25.52,32.82
12BHM03,5/11/2012,8:05 AM,5/11/2012,4:05 AM,29.11545,-87.92372,429.5,25.79,32.73
12BHM03,5/11/2012,8:20 AM,5/11/2012,4:20 AM,29.125,-87.93353,432.1,25.89,32.69
12BHM03,5/11/2012,8:35 AM,5/11/2012,4:35 AM,29.13483,-87.94343,435.3,25.92,32.68
12BHM03,5/11/2012,8:50 AM,5/11/2012,4:50 AM,29.14515,-87.95153,433,25.73,32.69
12BHM03,5/11/2012,9:05 AM,5/11/2012,5:05 AM,29.14523,-87.95112,435.9,25.76,32.67
12BHM03,5/11/2012,9:20 AM,5/11/2012,5:20 AM,29.14238,-87.9435,428.3,25.92,32.65
12BHM03,5/11/2012,9:35 AM,5/11/2012,5:35 AM,29.13868,-87.92923,435.3,26.29,32.68
12BHM03,5/11/2012,9:50 AM,5/11/2012,5:50 AM,29.13487,-87.91533,407.2,25.97,32.67
12BHM03,5/11/2012,10:05 AM,5/11/2012,6:05 AM,29.13127,-87.90152,407.4,25.92,32.76
12BHM03,5/11/2012,10:20 AM,5/11/2012,6:20 AM,29.12683,-87.88505,430.8,25.97,32.84
12BHM03,5/11/2012,10:35 AM,5/11/2012,6:35 AM,29.12235,-87.8691,422.7,26.03,32.82
12BHM03,5/11/2012,11:38 AM,5/11/2012,7:38 AM,29.1167,-87.8882,424.6,26.08,32.85
12BHM03,5/11/2012,11:38 AM,5/11/2012,7:38 AM,29.1167,-87.8882,419.1,25.97,32.85
12BHM03,5/11/2012,11:38 AM,5/11/2012,7:38 AM,29.1167,-87.8882,403.2,26.16,32.85
12BHM03,5/11/2012,11:39 AM,5/11/2012,7:39 AM,29.11748,-87.88813,409.8,25.92,32.85
12BHM03,5/11/2012,11:43 AM,5/11/2012,7:43 AM,29.119,-87.88585,416.5,25.89,32.84
12BHM03,5/11/2012,11:44 AM,5/11/2012,7:44 AM,29.11937,-87.88543,412.5,25.76,32.83
12BHM03,5/11/2012,11:47 AM,5/11/2012,7:47 AM,29.12053,-87.88442,411.9,25.92,32.82
12BHM03,5/12/2012,5:13 AM,5/12/2012,1:13 AM,29.57015,-86.58022,411.7,25.92,35.71
12BHM03,5/12/2012,5:13 AM,5/12/2012,1:13 AM,29.57015,-86.58022,408.8,25.68,35.71
12BHM03,5/12/2012,5:19 AM,5/12/2012,1:19 AM,29.57157,-86.57485,405.3,25.6,35.71
12BHM03,5/12/2012,5:24 AM,5/12/2012,1:24 AM,29.57248,-86.57087,404.1,25.55,35.71
12BHM03,5/12/2012,5:35 AM,5/12/2012,1:35 AM,29.57347,-86.56297,396.1,25.5,35.73
12BHM03,5/12/2012,5:50 AM,5/12/2012,1:50 AM,29.57252,-86.56168,403.3,25.5,35.59
12BHM03,5/12/2012,6:05 AM,5/12/2012,2:05 AM,29.57127,-86.55297,401.3,25.52,35.59
12BHM03,5/12/2012,6:20 AM,5/12/2012,2:20 AM,29.56642,-86.58323,399.4,25.6,35.57
12BHM03,5/12/2012,6:35 AM,5/12/2012,2:35 AM,29.5679,-86.5841,404.1,25.87,35.57
12BHM03,5/12/2012,6:50 AM,5/12/2012,2:50 AM,29.5703,-86.58363,400.1,25.81,35.58
12BHM03,5/12/2012,7:05 AM,5/12/2012,3:05 AM,29.57967,-86.56982,396.6,25.68,35.58
12BHM03,5/12/2012,7:20 AM,5/12/2012,3:20 AM,29.58473,-86.57928,399.9,25.89,35.56
12BHM03,5/12/2012,7:35 AM,5/12/2012,3:35 AM,29.58877,-86.59565,400.4,25.63,35.57
12BHM03,5/12/2012,7:50 AM,5/12/2012,3:50 AM,29.59287,-86.61242,397.3,25.26,35.62
12BHM03,5/12/2012,8:05 AM,5/12/2012,4:05 AM,29.59588,-86.62218,396.6,25.18,35.62
12BHM03,5/12/2012,8:20 AM,5/12/2012,4:20 AM,29.59832,-86.63753,396,25.18,35.62
12BHM03,5/12/2012,8:35 AM,5/12/2012,4:35 AM,29.6026,-86.65497,397.1,25.08,35.59
12BHM03,5/12/2012,8:50 AM,5/12/2012,4:50 AM,29.60702,-86.67225,394.7,25.05,35.58
12BHM03,5/12/2012,9:05 AM,5/12/2012,5:05 AM,29.61382,-86.68873,397.9,25.1,35.59
12BHM03,5/12/2012,9:20 AM,5/12/2012,5:20 AM,29.6217,-86.7049,397.7,25.13,35.56
12BHM03,5/12/2012,9:35 AM,5/12/2012,5:35 AM,29.63035,-86.7206,402.4,25.21,35.56
12BHM03,5/12/2012,9:50 AM,5/12/2012,5:50 AM,29.63952,-86.73633,398.2,25.13,35.56
12BHM03,5/12/2012,10:05 AM,5/12/2012,6:05 AM,29.6486,-86.75203,390.7,25.08,35.36
12BHM03,5/12/2012,10:20 AM,5/12/2012,6:20 AM,29.65775,-86.7677,395.3,25.02,35.4